Content
SEND FEEDBACK

Daily
Averages
Monthly
Summary
Mexico

CANCUN, QUINTANA ROO


Home > North America > Mexico > Quintana Roo
Elevation: 30 feet     Latitude: 21 09N     Longitude: 086 49W

WEATHER
 
SELECT A DAY
Number of Records: 163,905;   Date Range: 1/1/95 - 8/10/14
 
SHARE

PRINT THIS DATA

[ ← Previous Day ]
WEATHER ALMANAC - JANUARY 29, 2014
[ Next Day → ]
[ °C ]   °F
Weather ElementAverageHighLow
Temperature76.1 °F84.2 °F (1:46 pm)68 °F (2:48 am)
Dewpoint71.3 °F73.4 °F (7:44 am)68 °F (2:48 am)
Humidity86 %100 % (1:44 am)66 % (1:46 pm)
Barometer29.96 in30.01 in (9:43 am)29.91 in (2:43 pm)
Wind Speed6.1 mph13.8 mph (2:43 pm)
Weather ElementAverage
Visibility7 mi
Wind DirectionSE (133 °)

Weather ElementTotal
Precipitation---
Cooling Degree Days11.1 (Base 65)
Growing Degree Days26.1 (Base 50)
Averaged from 23 records on January 29, 2014
WEATHER CONDITIONS BREAKOUT
WIND DIRECTION BREAKOUT
WEATHER BY HOUR - JANUARY 29, 2014
[ °C ]   °F
Local TimeTemperatureDewpointHumidityBarometerVisibilityWind DirectionWind SpeedGust SpeedPrecipitationEventsConditions
1:44 AM69.8 °F69.8 °F100 %29.97 in7.0 miCalmClear
2:48 AM68.0 °F68.0 °F100 %29.92 in7.0 miCalmClear
3:47 AM68.0 °F68.0 °F100 %29.96 in7.0 miCalmPartly Cloudy
4:46 AM68.0 °F68.0 °F100 %29.97 in7.0 miCalmScattered Clouds
5:45 AM69.8 °F69.8 °F100 %29.95 in7.0 miCalmScattered Clouds
6:46 AM71.6 °F71.6 °F100 %29.98 in7.0 miESE (120°)5.8 mphMostly Cloudy
7:44 AM75.2 °F73.4 °F94 %29.99 in7.0 miESE (120°)5.8 mphMostly Cloudy
8:46 AM80.6 °F71.6 °F74 %29.97 in7.0 miSE (140°)10.4 mphScattered Clouds
9:43 AM82.4 °F73.4 °F74 %30.01 in7.0 miSE (140°)8.1 mphMostly Cloudy
10:44 AM82.4 °F73.4 °F74 %30.01 in7.0 miSE (130°)9.2 mphMostly Cloudy
11:41 AM82.4 °F71.6 °F70 %29.98 in7.0 miSE (140°)9.2 mphMostly Cloudy
12:41 PM82.4 °F73.4 °F74 %29.97 in7.0 miESE (110°)9.2 mphMostly Cloudy
1:46 PM84.2 °F71.6 °F66 %29.94 in7.0 miESE (120°)9.2 mphMostly Cloudy
2:43 PM82.4 °F71.6 °F70 %29.91 in7.0 miSE (130°)13.8 mphScattered Clouds
3:47 PM80.6 °F71.6 °F74 %29.91 in7.0 miSE (130°)11.5 mphMostly Cloudy
4:42 PM80.6 °F71.6 °F74 %29.93 in7.0 miSE (140°)10.4 mphMostly Cloudy
5:45 PM78.8 °F71.6 °F78 %29.92 in7.0 miSE (140°)9.2 mphMostly Cloudy
6:40 PM77.0 °F73.4 °F89 %29.94 in7.0 miSSE (150°)6.9 mphScattered Clouds
7:43 PM75.2 °F71.6 °F89 %29.96 in7.0 miSE (140°)2.3 mphScattered Clouds
8:41 PM75.2 °F71.6 °F89 %29.95 in7.0 miWest (280°)3.5 mphScattered Clouds
9:46 PM73.4 °F71.6 °F94 %30.00 in7.0 miWNW (300°)3.5 mphScattered Clouds
10:50 PM71.6 °F71.6 °F100 %30.01 in6.0 miNW (310°)5.8 mphRainRain
11:43 PM71.6 °F69.8 °F94 %29.97 in7.0 miNW (320°)5.8 mphScattered Clouds
Hourly data recorded from MMUN, located miles away from Cancun, Quintana Roo







STORIES FROM OUR PARTNERS